Location: Unspecified
(0.0000°N, 0.0000°E)
Time: 21:16:49
(UTC+00:00)

COSMOS 1275 DEB - Pass Details

Date: 18 March 2026
Orbit: 902 x 973 km, 82.9° (Epoch: 8 April)

Event Time Altitude Azimuth Distance (km) Brightness Sun altitude
Rises 18:52:30 0° 350° (N) 3,652 ? -11.1°
Reaches altitude 10° 18:55:01 10° 347° (NNW) 2,707 ? -11.8°
Maximum altitude 19:01:09 63° 267° (W) 1,069 ? -13.3°
Drops below altitude 10° 19:07:16 10° 187° (S) 2,696 ? -14.8°
Sets 19:09:47 0° 183° (S) 3,636 ? -15.4°
